Regional Weather Roundup
Issued by NWS

Home | Current Version | Previous Version | Graphics & Text | Print | Product List | Glossary On
Versions: 1 2 3 4 5 6 7 8 9 10 11 12 13 14 15 16 17 18 19 20 21 22 23 24 25 26 27 28 29 30 31 32 33 34 35 36 37 38 39 40 41 42 43 44 45 46 47 48 49
000
ASUS45 KCYS 262310
RWRWY

WYOMING REGIONAL WEATHER ROUNDUP
NATIONAL WEATHER SERVICE CHEYENNE WY
400 PM MST WED NOV 26 2014

NOTE:  "FAIR" INDICATES FEW OR NO CLOUDS BELOW 12,000 FEET
WITH NO SIGNIFICANT WEATHER AND/OR OBSTRUCTIONS TO VISIBILITY.

WYZ001-270000-
YELLOWSTONE NATIONAL PARK

CITY           SKY/WX    TMP DP  RH WIND       PRES   REMARKS
LK YELLOWSTONE   N/A     32  28  85 VRB7      30.26R WCI  26
W YELLOWSTONE  NOT AVBL

$$
WYZ002>013-054>058-071-098>099-270000-
NORTHERN WYOMING

CITY           SKY/WX    TMP DP  RH WIND       PRES   REMARKS
JACKSON        MOCLDY    39  32  75 S7        30.28S WCI  34
CODY           PTCLDY    27  25  93 NE7       30.13R WCI  19
GREYBULL       CLOUDY    29  27  92 SE3       30.19R
WORLAND        FOG       24  23  96 SE5       30.19R VSB<1/4 WCI  18
SHERIDAN       LGT SNOW  28  26  92 S3        30.18F FOG
BUFFALO        CLOUDY    27  23  85 SE6       30.17S WCI  20
GILLETTE       CLOUDY    27  23  85 SE5       30.20R FOG     WCI  22
HULETT           N/A    N/A N/A N/A MISG        N/A
NEWCASTLE      FAIR      30  23  74 W5        30.23S WCI  25

$$
WYZ014>020-022>026-101>103-270000-
CENTRAL WYOMING

CITY           SKY/WX    TMP DP  RH WIND       PRES   REMARKS
BIG PINEY      MOCLDY   N/A N/A N/A N15       30.31R
PINEDALE       MOCLDY    36  32  87 NW17      30.29S WCI  25
DUBOIS         FAIR      37  27  65 W25G35    30.20R WCI  26
LANDER         MOCLDY    42  32  67 CALM      30.14R
RIVERTON       CLOUDY    44  30  57 W12G18    30.15R
CASPER         PTCLDY    28  22  78 SE5       30.16R WCI  23
DOUGLAS        CLOUDY    29  23  78 SE7       30.19R WCI  22

$$
WYZ021-027>030-104>119-270000-
SOUTHERN WYOMING

CITY           SKY/WX    TMP DP  RH WIND       PRES   REMARKS
EVANSTON       PTCLDY    42  27  55 SW18      30.38R
FORT BRIDGER   FAIR      46  29  50 W23G33    30.37S
ROCK SPRINGS   CLEAR     45  27  49 W17G24    30.30R
DIXON          FAIR      45  30  54 W13       30.32S
RAWLINS        PTCLDY    45  29  53 W23G41    30.21R
SARATOGA       FAIR      43  30  61 W29G43    30.23R
LARAMIE        PTCLDY    43  27  53 W28G41    30.16R
CHEYENNE       CLOUDY    33  24  69 S12       30.14S WCI  24
TORRINGTON     CLOUDY    29  27  92 S6        30.22R WCI  23
PINE BLUFFS    MOCLDY    30  23  74 S6        30.21S WCI  24

$$


USA.gov is the U.S. government's official web portal to all federal, state and local government web resources and services.